Location: Bacharowice
(49.9333°N, 19.5833°E)
Time: 09:17:30
(UTC+00:00)

Cosmos 1908 Rocket - Pass Details

Date: 28 September 2021
Orbit: 605 x 633 km, 82.5° (Epoch: 27 October)

Event Time Altitude Azimuth Distance (km) Brightness Sun altitude
Rises 03:18:01 0° 357° (N) 2,910 7.1 -13.5°
Reaches altitude 10° 03:20:30 10° 8° (N) 1,994 6.4 -13.1°
Maximum altitude 03:24:25 31° 71° (ENE) 1,098 5.7 -12.5°
Drops below altitude 10° 03:28:17 10° 133° (SE) 1,965 6.6 -11.9°
Sets 03:30:41 0° 144° (SE) 2,860 7.3 -11.5°
